Tracking 33723 objects as of 10-Apr-2026
HD Live streaming from Space Station
objects crossing your sky now

FENGYUN 1C DEB

Track FENGYUN 1C DEB now!
10-day predictions


NORAD ID: 31327
Int'l Code: 1999-025BQF
Perigee: 468.6 km
Apogee: 571.3 km
Inclination: 99.0 °
Period: 94.9 minutes
Semi major axis: 6890 km
RCS: 0.0089 m2 (small)
Launch date: May 10, 1999
Source: People's Republic of China (PRC)
Launch site: Taiyaun Space Center, China (TSC)

Note: This is SATELLITE DEBRIS
Your satellite tracking list
Your tracking list is empty




NASA's NSSDC Master Catalog

Two Line Element Set (TLE):
1 31327U 99025BQF 26095.80453239  .00034160  00000-0  15743-2 0  9993
2 31327  98.9762 122.5778 0074497 351.5064   8.4898 15.17705916 18251
Source of the keplerian elements: AFSPC